{"data":{"norad_id":64182,"intl_designator":"2025-113N","name":"STARLINK-34131","alt_names":[],"object_type":"PAYLOAD","status":"ACTIVE","operator":null,"country":"US","launch_date":"2025-05-28","launch_site_code":"AFETR","launch_vehicle":null,"mission":null,"orbit_class":"UNKNOWN","rcs_meters":null,"size_class":null,"mass_kg":null,"dimensions":null,"purposes":["comms"],"wikipedia_slug":null,"has_3d_model":false,"image_url":null,"decayed_at":null,"tle_current":{"epoch":"2026-09-20T23:16:29.395488Z","epoch_age_seconds":99825,"freshness":"FRESH","line1":"1 64182U 25113N   26263.96978467  .00014197  00000+0  43057-3 0  9991","line2":"2 64182  53.1575 263.3435 0001268  73.5141 286.6001 15.34395982 74938","mean_motion":15.34395982,"eccentricity":0.0001268,"inclination_deg":53.1575,"raan_deg":263.3435,"arg_perigee_deg":73.5141,"mean_anomaly_deg":286.6001,"bstar":0.00043057,"rev_number":7493,"period_min":93.848003832951,"perigee_km":461.84776251917,"apogee_km":463.58260263267,"semimajor_km":6840.8521825759,"source":"CELESTRAK","updated_at":"2026-09-21T09:00:35.245285Z"}}}